Espace membre
Imprimable
Antwerpen, 22/04/2012, BEL - DVV Antwerp 10 Miles & Marathon
Liste des rapports > 10 Miles - Classement
Recherche: Page: [1] 2 3
1029 Entrées
 
Les réclamations ne sont plus acceptées, les résultats sont considérés comme définitifs.
RangNrNomAgeIOCTempsTkmMoy.ScrLocalité
1.12512HERBET Henri50BEL58:193:38 16.5681SART
2.1238BAETENS Luc50BEL59:333:42 16.22121LINT
3.886MATTHIJSSENS Marc50BEL1:00:023:44 16.09136BRASSCHAAT
4.257ROSIERS Marc52BEL1:01:283:50 15.71184SINT-KATELIJNE-
5.499HUBERLAND Thierry51BEL1:01:543:51 15.60199BRUXELLES
6.1287DE RYCKE Dirk50BEL1:01:583:51 15.59202MORTSEL
7.581DE MAN Patrick50BEL1:02:173:53 15.51215AALST
8.4372BOONE Jules51BEL1:02:233:53 15.48221DINANT
9.839VAN RIEL Paul50BEL1:02:333:54 15.44234WUUSTWEZEL
10.1299DE MAEYER Leo50BEL1:03:313:57 15.21290BOOM
11.1114VAN GAEVER Egied51BEL1:03:543:59 15.12315DEURNE (ANTWERP
12.885MAES Karl51BEL1:03:553:59 15.11320BRASSCHAAT
13.771GYSEN Wim52BEL1:05:004:03 14.86390BERCHEM (ANTWER
14.6421VANDERHEYDEN Marc50BEL1:05:014:03 14.86393TESSENDERLO
15.9193VAN LOOVEREN Frank51BEL1:05:454:06 14.69463BRASSCHAAT
16.266YSENBAARDT Jos50BEL1:05:564:06 14.65477RIJMENAM
17.430VAN HOUTVEN Marc51BEL1:06:184:08 14.57508BOECHOUT
18.151HENDRICKX Andre54BEL1:06:294:08 14.53522MOLENSTEDE
19.1210VANBOSSEL Christof50BEL1:06:434:09 14.48541BAZEL
20.8942VAN WESENBEECK Herman51BEL1:07:164:11 14.36599KALMTHOUT
21.1235BONATO Patrick52BEL1:07:384:13 14.28633MECHELEN
22.8646PEETERS Frank52BEL1:07:474:13 14.25659BRECHT
23.125GOLVERS Aime54BEL1:07:534:14 14.23671BONHEIDEN
24.835VAN DE POL Eddy54BEL1:08:064:14 14.18703GROBBENDONK
25.221JANSSENS Guy51BEL1:08:144:15 14.16714ST.NIKLAAS
26.795STEIJAART Lucien50NLD1:08:254:15 14.12728HULST
27.17917BRYSSINCK Antoin54BEL1:08:254:16 14.12729ANTWERPEN
28.1228VANDENBERGH Paul52BEL1:08:264:16 14.11730BURCHT
29.456VAN KEIRSBILCK Marnix52BEL1:08:294:16 14.10741DILBEEK
30.446VAN BRAGT Peter53BEL1:08:314:16 14.10745BERCHEM (ANTWER
31.17955DE VOS Pierre51BEL1:08:334:16 14.09751SINT-KATELIJNE-
32.16681VAN DE CAUTER Erwin50BEL1:08:404:16 14.06766GENT
33.773DE COCK Dirk52BEL1:08:424:17 14.06772OUDENAARDE
34.8825NYS Danny-Flor51BEL1:08:434:17 14.06774BEGIJNENDIJK
35.495VAN DE POL Gust52BEL1:08:444:17 14.05777OUD-TURNHOUT
36.12452LUTJE WAGELAAR Benno52NLD1:08:494:17 14.03797HENGELO
37.18547PEELMAN Lieven51BEL1:08:544:17 14.02811LOKEREN
38.6362LAMBRECHTS Ludwig52BEL1:09:104:18 13.96853BEERZEL
39.29349HERREGODTS Frank511:09:124:18 13.96858
40.156WALRAVENS Alain54BEL1:09:174:19 13.94869GRIMBERGEN
41.16003NYS Freddy54BEL1:09:234:19 13.92886BEVEREN-WAAS
42.29591DE SAEGHER Ronny50BEL1:09:244:19 13.92888
43.10141VAN CALCK Marc53BEL1:09:254:19 13.91890BRUXELLES
44.18244WITTEMANS Erwin54BEL1:09:424:20 13.86920ZWIJNDRECHT
45.15988DE PAUW Francis52BEL1:09:554:21 13.81951SINT-NIKLAAS
46.940DE PEUTER Francois50BEL1:10:004:21 13.80969BERLAAR
47.10187VERHAERT Frank50BEL1:10:014:21 13.79973WESTMALLE
48.1216VAN GEERT Geert51BEL1:10:124:22 13.761007BEVEREN-WAAS
49.833SPEELMANS Stefan50BEL1:10:204:23 13.731028DIEST
50.377MUSSELY Filip51BEL1:10:294:23 13.701048BAVIKHOVE
51.18932PEER Marc52BEL1:10:474:24 13.651096WIJNEGEM
52.1250VAN HOVE Frederik54BEL1:10:524:25 13.631111ZWIJNDRECHT
53.13156BECKERS Guy54BEL1:10:524:25 13.631112LINTER
54.556CLAES Herman54BEL1:10:544:25 13.621113BORGERHOUT (ANT
55.1068VERCRUYSSE Marc54BEL1:11:034:25 13.591137HEUSDEN (O.-VL.
56.145RASSAERTS Rudi52BEL1:11:044:25 13.591140WESPELAAR
57.3912VAN SPILBEECK Boudewijn53BEL1:11:194:26 13.541193KAPELLEN (ANTW.
58.10327VAN MOORTEL Carl54BEL1:11:214:26 13.541201WOMMELGEM
59.7492DE SAEGER Daniel51BEL1:11:234:27 13.531211SINT-NIKLAAS
60.19038DAEMS Richard52BEL1:11:324:27 13.501236BORSBEEK (ANTW.
61.58DE VOCHT Luc51BEL1:11:334:27 13.501242WOMMELGEM
62.4947CEES Hooren53BEL1:11:344:27 13.491245
63.847MEERSMAN Renaat52BEL1:11:424:28 13.471266WAKKEN
64.2893COLOMBO Daniele50BEL1:11:464:28 13.461284WEZEMBEEK OPPEM
65.16194VAN DER POORTEN Luc53BEL1:11:474:28 13.451288MECHELEN
66.13613HENSE Ronnie53NLD1:11:514:28 13.441304ZUNDERT
67.17961DE COSTER Guy50BEL1:11:534:28 13.441306VELTEM-BEISEM
68.13902DE BOT Theo54NLD1:12:024:29 13.411328KOEWACHT
69.6770ROEYMANS Danny52BEL1:12:034:29 13.401333ARENDONK
70.12707CASSIMON Stefan51BEL1:12:144:30 13.371360KAPELLEN (ANTW.
71.644VERBERCKMOES Marc51BEL1:12:194:30 13.361380ZELE
72.2341MOURMAUX Jean-Francois54BEL1:12:214:30 13.351390OTTIGNIES
73.757STRUYF Bruno50BEL1:12:224:30 13.351399EDEGEM
74.9523LUYTS Emile53BEL1:12:264:31 13.331412WINKSELE
75.371VAN RANST Luc54BEL1:12:314:31 13.321433SCHOTEN
76.4636DENIS Luc50BEL1:12:334:31 13.311448SCHILDE
77.16816BROECKX Marc53BEL1:12:344:31 13.311450ZWIJNDRECHT
78.12841SMITS Jef51BEL1:12:394:31 13.291467SCHILDE
79.7386BEVERS Gui54BEL1:12:434:32 13.281481WESTMALLE
80.838VAN LINDT Philippe51BEL1:12:524:32 13.251513REET
81.2890VAN GEEL Kees52BEL1:12:574:32 13.241536NL-ROOSENDAAL
82.132VAN GEEL Kees52NLD1:12:574:32 13.241539ROOSENDAAL
83.12802MAIER Gottfried50BEL1:12:574:32 13.241540ANTWERPEN
84.29052SPITAELS Peter50BEL1:12:594:33 13.231546
85.19326DE NYS Eric54BEL1:13:024:33 13.221564MECHELEN
86.6569PEETERS Luc51BEL1:13:034:33 13.221572ESSEN
87.15091BLOCKHUYS Peter51BEL1:13:054:33 13.221580NIJLEN
88.10847BUELENS Guido51BEL1:13:064:33 13.211591LIER
89.8529VERHAEGEN Walter50BEL1:13:104:33 13.201604HERENTHOUT
90.4376FRANSEN Guy53BEL1:13:124:33 13.201613BORGERHOUT (ANT
91.15880VAN PELT Jef50BEL1:13:184:34 13.181639LICHTAART
92.11512VAN GERWEN Joris53BEL1:13:214:34 13.171656LIER
93.13667DE GRAEF Peter54BEL1:13:264:34 13.151670ANTWERPEN
94.8375MINNOYE Chris50BEL1:13:274:34 13.151672BETEKOM
95.7734BOGAERT Hugo54BEL1:13:304:34 13.141685SCHELDERODE
96.9087DILS Luc51BEL1:13:334:35 13.131692BERENDRECHT
97.1208ANDRIES Danny53BEL1:13:334:35 13.131695BEVEREN-WAAS
98.19060MAERIEN Mil50BEL1:13:354:35 13.131698MORTSEL
99.15099CALBERSON Raf50BEL1:13:384:35 13.121710GOES NL
100.1509PELGRIMS Andre53BEL1:13:444:35 13.101731'S GRAVENWEZEL
101.7435DEMAEREL Eric51BEL1:13:514:36 13.081775KAPELLEN (ANTW.
102.7288ADAM Erwin53BEL1:13:524:36 13.071782GENT
103.1300VERHEYDEN Dirk51BEL1:13:564:36 13.061801ONZE-LIEVE-VROU
104.14251DEWACHTER Leon50BEL1:13:574:36 13.061805MEISE
105.4825QUATACKER Johan51BEL1:14:024:36 13.051829VOSSELAAR
106.7054VERCAMMEN Charles52BEL1:14:054:37 13.041840RAVELS
107.13999VERELST Bart50BEL1:14:094:37 13.031854BORNEM
108.15554MINGEROET Luc53BEL1:14:144:37 13.011873SINT-NIKLAAS
109.13168PONSAERT Luc53BEL1:14:174:37 13.001887TIENEN
110.18555LISONS Marc52BEL1:14:264:38 12.981919OVERIJSE
111.14824JANSSENS Frank53BEL1:14:284:38 12.971930ZOERSEL
112.2859DEVIS Marc53BEL1:14:374:39 12.941972SCHOTEN
113.1217VERMEIRSSEN Paul51BEL1:14:384:39 12.941974DE KLINGE
114.867THEUNISSEN Mano51NLD1:14:384:39 12.941975AMERSFOORT
115.28903HOREMANS Luc51BEL1:14:394:39 12.941977
116.16598PEETERS Hugo50BEL1:14:434:39 12.931994MECHELEN
117.19030BENOEY Tony52BEL1:14:444:39 12.921999MORTSEL
118.29552SMET Guido511:14:494:39 12.912019
119.28283AERTS Dirk501:14:584:40 12.882056
120.3369PEETERS Werner54BEL1:15:004:40 12.882068VOSSELAAR
121.16670DE BRUYNE Geert51BEL1:15:054:40 12.862089DEURLE
122.11542DUAH Ben54BEL1:15:074:40 12.862095HAM
123.152ROVITUSO Antonio52BEL1:15:144:41 12.842117MERKSEM (ANTWER
124.17054LENDERS Harry52BEL1:15:214:41 12.822148ANTWERPEN 5
125.13836DE SCHRIJDER Rudi53BEL1:15:224:41 12.812157WICHELEN
126.1057POORTMAN Gert50BEL1:15:254:42 12.812170MECHELEN
127.1782DE HAAS Peter50NLD1:15:294:42 12.792190OOSTERHOUT (N-B
128.11696SYVERTSEN Roland54BEL1:15:324:42 12.792211SINT NIKLAAS
129.5263ROBBERECHTS Paul53BEL1:15:344:42 12.782217HOLSBEEK
130.12528VAN GAAL Danny53BEL1:15:364:42 12.782230PEER
131.9284VAN LOY Patrick50BEL1:15:404:43 12.762246OLEN
132.28009DE BACKER Marnix501:15:414:43 12.762249
133.5687KOLENBERG Erik50BEL1:15:464:43 12.752269ZOERSEL
134.14985TESSENS Luc51BEL1:15:464:43 12.752271KONTICH
135.15848BOSMANS Johan50BEL1:15:474:43 12.742275WILLEBROEK
136.7350VAN WOUWE Guy51BEL1:15:494:43 12.742281EDEGEM
137.6766VERSCHUEREN Frank52BEL1:15:534:43 12.732302BRECHT
138.148MAES Emiel53BEL1:16:004:44 12.712335KNOKKE
139.10080MOMMAERT Rudi50BEL1:16:014:44 12.712338ST-GENESIUS-ROD
140.28174LALLEMAND Frank511:16:044:44 12.702361
141.10367VAN DEN MOOTER Luc51BEL1:16:064:44 12.692372PUURS
142.9073DE MEYER Gustaaf50BEL1:16:074:44 12.692375ZANDVLIET
143.29432VANA DER VLOEDT Kris501:16:074:44 12.692377
144.2665DE WAEGENEER Hugo50BEL1:16:084:44 12.692381VOLLEZELE
145.15830DAVID Geert54BEL1:16:174:45 12.662421WAASMUNSTER
146.16163MEEUS Nicolas50BEL1:16:184:45 12.662430WILRIJK
147.259DESTOMBES Patrick52BEL1:16:254:45 12.642458GIERLE
148.8363BROSENS Marc53BEL1:16:264:45 12.642466RIJKEVORSEL
149.6809VANDEPERRE Danny53BEL1:16:284:46 12.632474LINT
150.17945VAN AERDE Marc50BEL1:16:404:46 12.602528BRECHT
151.13518PEETERS Roel50BEL1:16:424:46 12.592541GENTBRUGGE
152.5986BAERT Jan53BEL1:16:474:47 12.582567HERENT
153.12754DESCHUYTERE Herman54BEL1:17:084:48 12.522670ANTWERPEN 2
154.893SMET Rudy52BEL1:17:094:48 12.522673ZANDHOVEN
155.5486JANSSENS Paul52BEL1:17:124:48 12.512689WIJNEGEM
156.6800DE GROOTE Karel50BEL1:17:154:48 12.502697ZONNEGEM
157.4088HOBBS Steve51GBR1:17:164:49 12.502704SWINDON
158.11715VAN VRACEM Herman53BEL1:17:184:49 12.502717HEMIKSEM
159.29565VAN DER LINDEN Paul531:17:184:49 12.492722
160.8710VAN LEIJEN Wilbert50NLD1:17:214:49 12.492736AMSTERDAM
161.793WILLEMS Francis54BEL1:17:244:49 12.482757WECHELDERZANDE
162.28169DE WILDE Dimitri51BEL1:17:254:49 12.472770
163.13151VANGEEL Eric53BEL1:17:284:49 12.472780BINKOM
164.3067DEBLIER Patrick50BEL1:17:294:49 12.462783LOMMEL
165.10618AELBRECHT Paul53BEL1:17:364:50 12.452819BUGGENHOUT
166.7504NACKAERTS Guy50BEL1:17:514:51 12.412896BERCHEM (ANTWER
167.1719TOELEN Jan50BEL1:17:574:51 12.392928OLMEN
168.8184SUIKERBUIK Anton54NLD1:18:004:51 12.382944BERGEN OP ZOOM
169.11713VAN LIERDE Bruno50BEL1:18:024:51 12.382954MERKSEM (ANTWER
170.8380TONDEUR Emmanuel53BEL1:18:054:52 12.372969OVERIJSE
171.8768KNAAP Isto54NLD1:18:094:52 12.362997GOES
172.19079VAN BEECK Alex52NLD1:18:114:52 12.353012PUTTE
173.5123LEVY Philippe50BEL1:18:114:52 12.353015GENT
174.12730KERKKHOFS Johan50BEL1:18:164:52 12.343047HECHTEL-EKSEL
175.1007PLAETINCK Ernst53BEL1:18:174:52 12.343055BAZEL
176.10457NOMURA Masatomo52BEL1:18:184:52 12.333057RHODE-SAINT-GEN
177.16853WILLEMSEN Arno51BEL1:18:214:53 12.333078BRASSCHAAT
178.3915BARNARD Johan53BEL1:18:254:53 12.323096BRUSSEL
179.16846VAN HAVERE Bernard50BEL1:18:324:53 12.303136ZWIJNDRECHT
180.13071LEPLAE Bart52BEL1:18:344:53 12.293147RIJKEVORSEL
181.28266VAN DENHEIDE Karel511:18:364:53 12.293159
182.14526DIERCKX Dirk53BEL1:18:394:54 12.283176TURNHOUT
183.13215WALRAVEN Ronny51BEL1:18:394:54 12.283177AARTSELAAR
184.540STEPMAN Daniel50BEL1:18:394:54 12.283179MERELBEKE
185.161WOELDERS Jan51BEL1:18:424:54 12.273192ANTWERPEN 1
186.9522RUITERS Koen50BEL1:18:504:54 12.253230ANTWERPEN
187.676DEHAES Patrick52BEL1:18:514:54 12.253234EVERBERG
188.17200HERTOGS Rudi53BEL1:18:534:55 12.243252
189.6638CORTHOUTS Ivo50BEL1:18:554:55 12.243265BUGGENHOUT
190.18417SPINNEWYN Jose52BEL1:18:574:55 12.233277ANTWERPEN 5
191.6469VAN NIMMEN Jozef52BEL1:18:584:55 12.233279SCHOTEN
192.14125BOS Wim50BEL1:19:024:55 12.223307MERELBEKE
193.10727AUGUSTEYNS Rudy52BEL1:19:034:55 12.223309HEMIKSEM
194.19435BOUCQUEM Pets521:19:044:55 12.213317
195.10677DEHANDSCHUTTER Herman53BEL1:19:054:55 12.213322DE HAAN
196.12919MORTIER Filip51BEL1:19:064:55 12.213323BRUGGE
197.7979CELIS Jef54BEL1:19:074:55 12.213328VORSELAAR
198.642VERTONGEN Daniel54BEL1:19:094:56 12.203338KAPELLE-OP-DEN-
199.15658CLAESSENS Kris51BEL1:19:114:56 12.203344HALLE (KEMPEN)
200.8048PAREIN Paul51BEL1:19:124:56 12.203348WILRIJK (ANTWER
201.19771VANDE WEIJER Erik501:19:134:56 12.193353
202.19213HOLTHOF Bruno51BEL1:19:164:56 12.183379SCHILDE
203.9116KENIS Marc50BEL1:19:184:56 12.183393BERLAAR
204.28123VETS Eddy541:19:244:56 12.163433
205.8057BLEYS Marc52BEL1:19:274:57 12.163454WILRIJK (ANTWER
206.4734WOUTERS Johan51BEL1:19:284:57 12.153460OELEGEM
207.10525TIJSKENS Guido53BEL1:19:344:57 12.143488LEEFDAAL
208.14386BOONSTRA Fedde54NLD1:19:354:57 12.143495DEVENTER
209.19713DE WIT Marco52BEL1:19:354:57 12.133498
210.16013GOVAERTS Frans54BEL1:19:364:57 12.133504BLAASVELD
211.16504OEYEN Johan50BEL1:19:574:58 12.083629VREMDE
212.1281NKAYILU Nlandu52BEL1:20:014:59 12.073650DESSEL
213.17960VERBECK Benny51BEL1:20:034:59 12.063660EKEREN
214.8688MARIEN Jan50BEL1:20:104:59 12.053692MALLE
215.4993VAN DE VELDE Gunter50BEL1:20:114:59 12.043700AVERBODE
216.488BREULS Luc52BEL1:20:165:00 12.033739HERENT
217.15049VAN DE BEEK Theo51NLD1:20:265:00 12.013796ROTTERDAM
218.8992BAETEN Erik52BEL1:20:335:01 11.993839ANTWERPEN 2
219.809BRUGGEMAN Andre53BEL1:20:335:01 11.993840EVERGEM
220.17039DE LOOSE Harry51BEL1:20:355:01 11.993858TEMSE
221.13559CLAES Luc53BEL1:20:355:01 11.993859MASSENHOVEN
222.6732PELEMANS Erik50BEL1:20:355:01 11.983865LEEST
223.8448VAN DE CORPUT Jan53NLD1:20:375:01 11.983881GILZE
224.17683VAN LINDEN Eddy53BEL1:20:385:01 11.983884RUMST
225.6623NESLANY Jean54BEL1:20:405:01 11.973900GENT
226.8589WITTERS Rik50BEL1:20:435:01 11.973920MEEUWEN
227.11424KIPS Stefan50BEL1:20:445:01 11.963930KNOKKE-HEIST
228.5117BOGERS Eric53BEL1:20:465:02 11.963949HAMONT-ACHEL
229.4309BRANNVOLL Frank O52BEL1:20:485:02 11.953960HOEILAART
230.3662ROBIJNS Ludo54BEL1:20:495:02 11.953971SCHELLE
231.5152FRANCKEN Frans51BEL1:20:505:02 11.953980KALMTHOUT
232.19078TEMMERMAN Willem51BEL1:20:525:02 11.943999LOKEREN
233.17060INGHELS Alex52BEL1:20:565:02 11.934028DE KLINGE
234.15914VAN HAVERE Boudewijn52BEL1:21:045:03 11.914082BELSELE
235.19098VANHEYLEWEGHEN Paul53BEL1:21:065:03 11.914090MERKSEM (ANTWER
236.3105HAEGEMANS Walter50BEL1:21:075:03 11.914094RUMST
237.9119KUHN Gerhard50BEL1:21:095:03 11.904108KAPELLEN (ANTW.
238.7799VANGHEEL Marc50BEL1:21:125:03 11.894125OELEGEM
239.11363SCHEYNEN Danny51BEL1:21:165:03 11.884142HOOGSTRATEN
240.29327SCHELDEMAN Patrick521:21:205:04 11.874166
241.1380VAN ROMPAEY Ronald54BEL1:21:225:04 11.874180SCHOTEN
242.15561TANGHE Geert52BEL1:21:255:04 11.864199EDEGEM
243.9533GEYS Peter52BEL1:21:335:04 11.844251POLLARE
244.7432BROERS Frank53BEL1:21:355:05 11.844270GENK
245.8043STEYAERT Philippe50BEL1:21:425:05 11.824317ANTWERPEN
246.14630AERTS Marc53BEL1:21:485:05 11.814350SINT-NIKLAAS
247.7988KIEKENS Gunter51BEL1:21:515:06 11.804366SINT-NIKLAAS
248.16875DE DOBBELAERE Jan50BEL1:21:525:06 11.804374KONTICH
249.16387VAN LOON Werner50BEL1:21:535:06 11.804379MORTSEL
250.11127JORISSEN Guy50BEL1:21:535:06 11.794384SCHILDE
251.14599FRANSSEN Jan52BEL1:21:595:06 11.784427BRECHT
252.15662TORRELLE Paul-Andre51BEL1:22:035:06 11.774448SCHOTEN
253.14044SEYKENS Roger50BEL1:22:035:06 11.774453OELEGEM
254.2485VAN DER STEEN Luc52BEL1:22:075:07 11.764470WOMMELGEM
255.13699D'HAESE Werner51BEL1:22:085:07 11.764477MERE
256.3437BRIL Eric53BEL1:22:155:07 11.744516KALMTHOUT
257.13336LEEMANS Rudy51BEL1:22:175:07 11.744534PUTTE
258.8862STENVERT Maarten50BEL1:22:185:07 11.744539KALMTHOUT
259.17910HOLSTERS Gaston54BEL1:22:185:07 11.744540WOMMELGEM
260.15210MILANTS Walter54BEL1:22:235:08 11.724579WOMMELGEM
261.7364LENAERTS Patrick52BEL1:22:255:08 11.724597WOMMELGEM
262.12933HUYBEN Jef54BEL1:22:285:08 11.714611DE HAAN
263.8771CONZATO Franco54BEL1:22:295:08 11.714620BRUXELLES
264.12549VERHAEGEN Eric53BEL1:22:345:08 11.704650BOECHOUT
265.16399BOEKAERTS Jef52BEL1:22:425:09 11.684704NIJLEN
266.29243DAELEMANS Tony511:22:455:09 11.674726
267.5690DEVIJVER Karl54BEL1:22:495:09 11.664757MOL
268.14836ZAGERS Alain54BEL1:22:515:09 11.664767STABROEK
269.14601MATHIJSSEN Frans54BEL1:22:515:09 11.664773DEURNE
270.8924VERBEECK Alex51BEL1:22:525:09 11.664778MORTSEL
271.8844DIELS Eddy54BEL1:22:525:09 11.654787OELEGEM
272.16526BOLYN Pol51BEL1:22:575:10 11.644822ELEWIJT
273.29599SARENS Patrick501:22:595:10 11.644847
274.17001VAN ONGEVAL Johan52BEL1:23:005:10 11.644854ZANDHOVEN
275.17010DIERICKX Marc53BEL1:23:015:10 11.634858BURCHT
276.1683SPIJKERMAN Rolf52NLD1:23:025:10 11.634868DEN HAAG
277.3107VERSCHOREN Jan52BEL1:23:025:10 11.634870SCHRIEK
278.5021DE RIJBEL Renaat51BEL1:23:055:10 11.624892LOKEREN
279.17216WILMS Johan50BEL1:23:055:10 11.624894
280.13583CELEN Frank53BEL1:23:085:10 11.624911MERKSEM (ANTWER
281.9195VAN LOOY Erik51BEL1:23:125:11 11.614936MORTSEL
282.28031WIELOCKX Luc521:23:195:11 11.594985
283.11462TESSENS Paul50BEL1:23:205:11 11.594990MORTSEL
284.28089JOOSENS Erwin521:23:245:11 11.585023
285.14242VAN LOMMEL Marc52BEL1:23:255:11 11.585033BURCHT (ZWIJNDR
286.16499DE GIER Johan50BEL1:23:345:12 11.565101BERCHEM (ANTWER
287.4714POLLARD John52BEL1:23:345:12 11.565104LIER
288.19008CONINXS Tony50BEL1:23:475:13 11.535181SCHOTEN
289.1387VAN LOOVEREN Ludo50BEL1:23:485:13 11.525188MALLE
290.1023FLEERACKERS Jan53BEL1:23:485:13 11.525192PUTTE
291.10947HOSTE Peter50BEL1:23:505:13 11.525200BEVEREN-WAAS
292.9037ADRIAENSEN Kurt51BEL1:23:515:13 11.525208SCHOTEN
293.16096VANDEN BOER Johan50BEL1:23:535:13 11.515218LICHTAART
294.5878CHANTILLON Andre51BEL1:23:565:13 11.515232AARTSELAAR
295.15808SCHEERS Rene51BEL1:23:565:13 11.515239ANTWERPEN 3
296.15284VAN MECHELEN Theo50BEL1:23:585:13 11.505245OUD-TURNHOUT
297.12821GYSEMANS Joris50BEL1:24:005:14 11.505262MELLE
298.11563BROOS Serge52BEL1:24:025:14 11.495273VILVOORDE
299.17740COTTENIE Jan50BEL1:24:025:14 11.495279HOBOKEN (ANTWER
300.8387HORJUS Rein52NLD1:24:065:14 11.485298BOMMELERWAARD
301.3556WULGAERT Johan50BEL1:24:075:14 11.485303LOCHRISTI
302.28167VAN LUYTEN Dirk501:24:115:14 11.475340
303.10436BUYENS Dirk52BEL1:24:255:15 11.445439BERLAAR
304.985SEGERS Geert50BEL1:24:315:16 11.435489RUMST
305.6733BERTELS Frank52BEL1:24:325:16 11.425496DEURNE
306.14527ILLEGEMS Reginald53BEL1:24:325:16 11.425498ANTWERPEN 1
307.19464DE BAUW Kris521:24:345:16 11.425516
308.29576VIERENDEELS Tijl53BEL1:24:375:16 11.415533
309.4058SCHOKKAERT Jan51BEL1:24:445:16 11.405573PUURS
310.4995GOETSCHALCKX Marc51BEL1:24:445:16 11.405578BRASSCHAAT
311.4737GIELKENS Ivo50BEL1:24:455:16 11.405581OVERPELT
312.11660MAERSCHALCK Sus52BEL1:24:535:17 11.385640EKEREN
313.3905BESSEMS Frans53BEL1:24:555:17 11.375657KAPELLEN
314.8159DE TURCK Danny53BEL1:24:585:17 11.375684GERAARDSBERGEN
315.16820D'HOOGE Guido50BEL1:25:005:17 11.365694ZWIJNDRECHT
316.9954BEUCKELAERS Luc53BEL1:25:035:18 11.365711LONDERZEEL
317.11632FIGUEROA Jorge50BEL1:25:035:18 11.355713ANTWERPEN
318.13340ODEURS Julien50BEL1:25:045:18 11.355715HOBOKEN (ANTWER
319.16007MOORTHAMER Erik50BEL1:25:075:18 11.355734KRUIBEKE
320.16299ROTTHIER Luc51BEL1:25:085:18 11.345741WILRIJK (ANTWER
321.17106SOMERS Jan53BEL1:25:085:18 11.345746BORSBEEK (ANTW.
322.576STRIJBOS Frank53BEL1:25:095:18 11.345749ANTWERPEN
323.749VERDICKT Jef50BEL1:25:155:18 11.335822KONTICH
324.14073RAEYMAEKERS Benny50BEL1:25:165:18 11.335826ESSEN
325.12651BEL Chris51BEL1:25:165:18 11.335827RAVELS
326.3838VERSCHOOTE Ronny50BEL1:25:185:18 11.325841OOSTENDE
327.7061SCHUTRUPS Roel53NLD1:25:225:19 11.315869OUD - BEIJERLAN
328.13923STEVENS Joan52BEL1:25:255:19 11.315883AALTER
329.15398DE SCHUTTER Jef52BEL1:25:255:19 11.315885WUUSTWEZEL
330.29690VAN DESSEL Andre511:25:255:19 11.315888
331.15891VANHOVE Yvan53BEL1:25:265:19 11.305899SINT-NIKLAAS
332.28981DEBLAERE Christophe51BEL1:25:265:19 11.305901
333.10202WYDOODT Marc50BEL1:25:315:19 11.295931BOOM
334.1823ALPAERTS Tim51BEL1:25:325:19 11.295939WILRIJK
335.7638DEMEESTER Joseph53BEL1:25:345:19 11.295949IEPER
336.8663VAN DE VYVER Luc52BEL1:25:345:19 11.295958DESTELBERGEN
337.14054COLE Koen53BEL1:25:415:20 11.276012MORTSEL
338.19160VAN DORSELAAR Ludo54BEL1:25:415:20 11.276014MERKSEM (ANTWER
339.6065TRUIJEN Fred51BEL1:25:415:20 11.276016KINROOI
340.19631HERREGDTS Patrick511:25:445:20 11.276034
341.10910PAUELS Johan52BEL1:25:475:20 11.266060EDEGEM
342.16363BAUTERS Patrick50BEL1:25:495:20 11.256068DEINZE
343.1564VAN DER GUCHT Michael51BEL1:25:525:21 11.256087TEMSE
344.4907VERREPT Guido51BEL1:25:535:21 11.246095BOOISCHOT
345.298BEYENS Paul52BEL1:25:555:21 11.246104WOMMELGEM
346.9993DE KROON Luc54BEL1:26:005:21 11.236142NOORDERWIJK
347.13473SCHEPERS Marc52BEL1:26:005:21 11.236144SCHILDE
348.8599CEUPPENS Etienne53BEL1:26:025:21 11.236157TIELEN
349.8224BASTIAENSSENS Frans54BEL1:26:035:21 11.226164KAPELLEN (ANTW.
350.17671VAN DE WIEL Ludo54BEL1:26:035:21 11.226165HEMIKSEM
351.4552GEERKENS Rob50BEL1:26:045:21 11.226177OPGLABBEEK
352.18192BEYENS Kris50BEL1:26:065:21 11.226190MOLENSTEDE
353.625BRESSINCK Walter51BEL1:26:065:21 11.226193BAZEL
354.19084VAN HERCK Wim50BEL1:26:145:22 11.206251DEURNE (ANTWERP
355.19052JANSSEN Dirk51BEL1:26:145:22 11.206261BORGERHOUT (ANT
356.19727DE MAEYER Frank52BEL1:26:205:22 11.196305WILRIJK
357.19596RUELENS Jan51BEL1:26:245:23 11.186337
358.13759BUTTIENS Marc54BEL1:26:295:23 11.176371ALKEN
359.19490POLDERS Chris50BEL1:26:295:23 11.176372
360.8243VERBOVEN Luc50BEL1:26:305:23 11.176380TERVUREN
361.15955VAN VAERENBERGH Peter50BEL1:26:345:23 11.166410SINT-NIKLAAS
362.15888DE CALUWE Ronny53BEL1:26:365:23 11.156440HAASDONK
363.4463RICHIR Karl52BEL1:26:415:24 11.146474GESVES
364.16805VAN TICHELEN Willy50BEL1:26:415:24 11.146476BRASSCHAAT
365.15129DEGROEVE Dirk53BEL1:26:435:24 11.146496ANTWERPEN 1
366.7303VANHOUTTE Alex54BEL1:26:445:24 11.136508THORICOURT
367.17291KEYMOLEN Dirk53BEL1:26:455:24 11.136513BRASSCHAAT
368.4555DE CLERCK Serge50BEL1:26:505:24 11.126550BRASSCHAAT
369.10121SLEDSENS Jan54BEL1:26:505:24 11.126554OUD-TURNHOUT
370.4677MARTELEUR Luc53BEL1:26:505:24 11.126556BERCHEM (ANTWER
371.17065VERBRAEKEN Koen51BEL1:26:535:24 11.126580KRUIBEKE
372.7342KESTENS Christian51BEL1:26:555:24 11.116595MORTSEL
373.18668CROON Vic54BEL1:26:575:25 11.116618LEEST
374.12822ROSA Domenico51BEL1:26:585:25 11.116625UCCLE
375.12987JANSSENS Rudi51BEL1:26:595:25 11.106639MERKSEM (ANTWER
376.12520MONSIEUR Thierry51BEL1:27:015:25 11.106657GENK
377.12785RIOS CRUZ Lorena52BEL1:27:025:25 11.106667KORTRIJK
378.9140SCHEPENS Patrick53BEL1:27:045:25 11.096675ESSEN
379.5943VERMEIREN Marc54BEL1:27:055:25 11.096690ZPERSEL
380.8622MINTEN Johan53BEL1:27:085:25 11.086702HALEN
381.17235KEGELAERS Gerd54BEL1:27:115:25 11.086723NIJLEN
382.7735VAN ROMPARY Francis54BEL1:27:135:26 11.076746ASSE
383.15022DONCKERS Johan54BEL1:27:145:26 11.076753REET
384.10657RINCKHOUT Jos50BEL1:27:145:26 11.076761MELSBROEK
385.16093WYNANT Paul53BEL1:27:155:26 11.076767HAASDONK
386.10130TIJSKENS Marc50BEL1:27:165:26 11.076787ANTWERPEN
387.17225SMET Jacques50BEL1:27:175:26 11.076788
388.13591PARRET Dirk54BEL1:27:205:26 11.066811ZONNEBEKE
389.6673MEYVIS Wim52BEL1:27:215:26 11.066816LOENHOUT
390.16616DEBROUWERE Christiaan51BEL1:27:215:26 11.066817KIELDRECHT
391.28856CLAES Peter50BEL1:27:235:26 11.056838
392.4968GEUDENS Gust52BEL1:27:265:26 11.056856OUD-TURNHOUT
393.4982VAN GAEL Peter50BEL1:27:265:26 11.056863RAVELS
394.10093OPSOMER Frank52BEL1:27:295:27 11.046891POPERINGE
395.11050VERMEERSCH Patrick52BEL1:27:305:27 11.046905KAPELLEN
396.17085VERBEECK Patrick53BEL1:27:335:27 11.036928LIER
397.13599VANDEROOST Stefan54BEL1:27:345:27 11.036941VORSELAAR
398.6680SCHELLEMANS Danny53BEL1:27:385:27 11.026974BAZEL
399.16842VAN CAMPENHOUT Benny51BEL1:27:385:27 11.026976ZWIJNDRECHT
400.15112DE GROOTE Adelin52BEL1:27:415:27 11.017000EVERGEM
401.15127DECEUSTER Luc52BEL1:27:435:27 11.017024BRECHT
402.3948VAN PELLECOM Denis53BEL1:27:445:28 11.017027KAPELLE-OP-DEN-
403.10209VAN HERZELE Marc52BEL1:27:465:28 11.017037 BERCHEM
404.28994POSTELMANS Luc51BEL1:27:585:28 10.987117
405.10152VAN DIEST Marc51BEL1:28:015:29 10.977132LINT
406.3880VAN DER ENDT Jos54BEL1:28:015:29 10.977134BRASSCHAAT
407.12623KOENDERS Frankie50BEL1:28:055:29 10.967176KAPELLEN (ANTW.
408.4658SCHOUTENS Luc53BEL1:28:065:29 10.967187WILRIJK
409.28154BOGAERT Peter51BEL1:28:165:30 10.947281
410.7431SMOUT Erik51BEL1:28:165:30 10.947282KAPELLEN
411.10721MARTENS Chris51BEL1:28:175:30 10.947289NIJLLEN
412.9495HELLEMANS Hendrik53BEL1:28:175:30 10.947290ANTWERPEN
413.19056LENAER Vital51BEL1:28:235:30 10.937330LONDERZEEL
414.17038GOOVAERTS Bert54BEL1:28:275:30 10.927359RIJMENAM
415.18552VERBEKE Ivo54BEL1:28:285:30 10.927366KEERBERGEN
416.28919DEWEER Paul531:28:285:30 10.927367
417.7702LAUWAERT Patrick52BEL1:28:285:30 10.927371HOEGAARDEN
418.3143MAROT Etienne50BEL1:28:295:30 10.927382CUSTINNE
419.16327DE MEULDER Patrick50BEL1:28:295:30 10.927383SINT-NIKLAAS
420.13195DARCIS Ivo53BEL1:28:305:30 10.917392ALKEN
421.2040VANDERSTOCKT Jan50BEL1:28:335:31 10.917421BRASSCHAAT
422.7334KACZYNSKI Krzysztof52BEL1:28:335:31 10.917424STEENOKKERZEEL
423.4872VAN BAUWEL Jan54NLD1:28:405:31 10.897476DEN HAAG
424.13178VAN DAMME Guy53BEL1:28:435:31 10.897492ERPE-MERE
425.7680NAGELS Alain52BEL1:28:465:31 10.887529MOLENBEEK
426.28035MOREWO REYES Rodrigo521:28:515:32 10.877556
427.28111VAN CAMP Marc541:28:525:32 10.877564
428.6175OLEFS Mia50BEL1:28:535:32 10.877572BILZEN
429.544SCHROONS Gert50BEL1:28:545:32 10.867584BONHEIDEN
430.3561DE MOOR Eric51BEL1:28:575:32 10.867600KRUIBEKE
431.16935MARCY Emmanuel51BEL1:28:585:32 10.867613WESTMALLE
432.4080PUNIE Johan51BEL1:28:595:32 10.857620KORTESSEM
433.17500IN DEN KLEEF Harke511:28:595:32 10.857625
434.18459VERHAEGEN Leo54BEL1:29:025:32 10.857642MERCHTEM
435.29259VALCKE Jan531:29:055:33 10.847676
436.8365PIESSENS Marc51BEL1:29:075:33 10.847690SINAAI-WAAS
437.5352DE GRAUWE Ronny52BEL1:29:085:33 10.837695HOBOKEN
438.2678VAN WOENSEL Diederik51BEL1:29:125:33 10.837728BERCHEM
439.28314VERFAILLIE Jean-Marie541:29:145:33 10.827760
440.15575VANHAUTER Luc51BEL1:29:145:33 10.827761ELEWIJT
441.10955DEBEHETS Eddie54BEL1:29:155:33 10.827763BORNEM
442.16985VERWAEREN Paul53BEL1:29:155:33 10.827764DENDERMONDE
443.6217BORGHGRAEF Pierre50BEL1:29:165:33 10.827778BERCHEM
444.700FIERENS Benjamin53BEL1:29:165:33 10.827783MORTSEL
445.17407VAN PEER Paul501:29:175:33 10.827788
446.5341NOBELS Rene52NLD1:29:175:33 10.827798ELST
447.8242VAN ROEY Bernard51BEL1:29:215:34 10.817829TERVUREN
448.29583VERHEYEN Marc511:29:215:34 10.817833
449.5991GOUDMAN Marc51BEL1:29:215:34 10.817835KAPELLEN (ANTW.
450.13216VALGAEREN Jozef50BEL1:29:225:34 10.817846RUMST
451.3782SNEYERS Rob54BEL1:29:245:34 10.807862LICHTAART
452.17176DE PRETER Karl50BEL1:29:245:34 10.807870PUTTE
453.11689SNOECKX Marc50BEL1:29:255:34 10.807883BONHEIDEN
454.15154GYS Serge53BEL1:29:275:34 10.807903BRASSCHAAT
455.18398JO Simoens50BEL1:29:275:34 10.807907KAPELLEN
456.15218PAUWELS Mark51BEL1:29:315:34 10.797933SINT-LENAERTS
457.2337LAMBERT Marcel50BEL1:29:325:34 10.797945BRASSCHAAT
458.9821WEEMAES Patricia52BEL1:29:385:35 10.787986TEMSE
459.4292DE LANGHE Franky52BEL1:29:385:35 10.777987KRUIBEKE
460.29374RIEMAKER Dirk53BEL1:29:405:35 10.777998
461.7898WIENECKE Raymond54BEL1:29:405:35 10.777999WILRIJK
462.14969SMEULDERS Rony54BEL1:29:425:35 10.778013BURCHT
463.18267HOFFEM Didier50BEL1:29:435:35 10.778029SINT-PIETERS-LE
464.28967ELST Ronny51BEL1:29:475:35 10.768061
465.19682SEBERECHTS Dirk52FRA1:29:505:35 10.758094
466.14155DE VIS Koen54BEL1:29:515:35 10.758109VOSSELAAR
467.6122HOTTART Willy54BEL1:29:555:36 10.748150HOEILAART
468.7712SCHOUPPE Marc54BEL1:29:565:36 10.748154ASSE
469.12915RAVN Kim51DEN1:30:005:36 10.738186ZOTTEGEM
470.15815VAN RAEMDONCK Wouter51BEL1:30:025:36 10.738201TEMSE
471.5340DE KEYSER Guy51BEL1:30:035:36 10.738213WIJNEGEM
472.16889VAN BROECK Herman51BEL1:30:035:36 10.728217KRUIBEKE
473.4226BOONE Christiaan51BEL1:30:035:36 10.728219EKSAARDE
474.8221VAN DE VEN Paul50BEL1:30:045:36 10.728222DILBEEK
475.14275JANSSENS Kris51BEL1:30:045:36 10.728225KALMTHOUT
476.7286SMITS Robert54BEL1:30:055:36 10.728228ZOERSEL
477.9376VAN LATHEM Karl51BEL1:30:065:36 10.728239ANTWERPEN 1
478.6978VAN LAER Jef53BEL1:30:065:36 10.728242HOOGSTRATEN
479.6694VANHEE Danny52BEL1:30:065:36 10.728243SPIERE
480.15930WAUMAN Patrick52BEL1:30:085:36 10.728251TEMSE
481.3388DEPREZ Peter50BEL1:30:095:37 10.718263BRASSCHAAT
482.1704JANSEN Piet52NLD1:30:145:37 10.708296THOLEN
483.13121JANSSENS Frank53BEL1:30:155:37 10.708306WIJNEGEM
484.14905VAN CROONENBORCH Erwin54BEL1:30:165:37 10.708311HOEVENEN
485.12898SMITS Maurice52BEL1:30:175:37 10.708318ZANDHOVEN
486.5830FAVA Luca54ITA1:30:185:37 10.708330VARESE
487.7027OLLIVIER Erwin50BEL1:30:195:37 10.698334WEMMEL
488.8140GROUWELS Roland52BEL1:30:245:37 10.688379WERCHTER
489.6830DE STROOPER Bart52BEL1:30:265:38 10.688387LEUVEN
490.12535VERAART Jan51BEL1:30:265:38 10.688392ESSEN
491.18171BOSSAERTS Fernand53BEL1:30:265:38 10.688393BROECHEM
492.28893PHILIPPO Jan511:30:265:38 10.688394
493.1094FOQUE Dirk52BEL1:30:305:38 10.678423BERCHEM (ANTWER
494.19628WARD Graham531:30:345:38 10.668467
495.7392KENIS Leo51BEL1:30:355:38 10.668474BRECHT
496.15090BJöRKLUND Martin50BEL1:30:375:38 10.668489RIJKEVORSEL
497.14620PEETERS Tom53BEL1:30:385:38 10.668492MECHELEN
DNF: abandon; DSQ: disqualifié; Vitesse en km/h
Page: [1] 2 3